Date String (YYYY-MM-DD hh:mm:ss) UTC,Instrument flags,absolute air pressure of the measurement (hPa),sample flow rate (lpm),inlet stack bypass flow (lpm),air temperature of the measurement (°C),ambient temperature measured by the external sensor (°C),aerosol sample conditioner tube jacket temperature (°C),OPC LED temperature (°C),internal box temperature (°C),relative humidity of the measurement (%),span deviation,mass concentration of particles derived from Lorenz-Mie calculation of OPC scattering (μg/m³),mass concentration of particles derived from Lorenz-Mie calculation of OPC scattering (μg/m³),mass concentration of particles derived from Lorenz-Mie calculation of OPC scattering (μg/m³)
DateTimeUTC,F1_M11,P_M11,Q1_M11,Q2_M11,T1_M11,T2_M11,T3_M11,T4_M11,T5_M11,U1_M11,ZSPAN_M11,X0_M11,X2_M11,X1_M11
2024-03-18 20:00:00,SystemResetWarning,0833.0,5.00,000.00,021.0,020.3,000.0,029.4,022.7,13.5,0000.0,0006.72,0001.88,0001.11
2024-03-18 20:01:00,SystemResetWarning,0833.1,4.99,000.00,021.0,020.3,000.0,029.4,022.7,13.0,0000.0,0006.25,0001.86,0001.10
2024-03-18 20:02:00,SystemResetWarning,0833.3,5.00,000.00,021.0,020.3,000.0,029.4,022.8,12.8,0000.0,0006.08,0001.81,0001.09
2024-03-18 20:03:00,SystemResetWarning,0833.1,5.00,000.00,021.0,020.3,000.0,029.4,022.8,13.5,0000.0,0006.57,0001.83,0001.09
2024-03-18 20:04:00,SystemResetWarning,0832.9,5.00,000.00,021.0,020.4,000.0,029.4,022.8,13.6,0000.0,0006.77,0001.86,0001.08
2024-03-18 20:05:00,SystemResetWarning,0833.0,5.00,000.00,021.0,020.4,000.0,029.4,022.8,13.7,0000.0,0005.22,0001.85,0001.09
2024-03-18 20:06:00,SystemResetWarning,0832.9,5.00,000.00,021.0,020.4,000.0,029.4,022.8,14.2,0000.0,0005.11,0001.79,0001.08
2024-03-18 20:07:00,SystemResetWarning,0833.0,5.00,000.00,021.0,020.4,000.0,029.4,022.8,13.9,0000.0,0005.01,0001.76,0001.04
2024-03-18 20:08:00,SystemResetWarning,0832.9,5.01,000.00,021.1,020.4,000.0,029.4,022.8,12.7,0000.0,0005.58,0001.73,0001.02
2024-03-18 20:09:00,SystemResetWarning,0833.1,4.99,000.00,021.1,020.4,000.0,029.4,022.8,12.5,0000.0,0005.62,0001.69,0000.99
2024-03-18 20:10:00,SystemResetWarning,0833.3,5.00,000.00,021.1,020.4,000.0,029.4,022.8,13.4,0000.0,0005.69,0001.66,0000.97
2024-03-18 20:11:00,SystemResetWarning,0833.4,5.00,000.00,021.1,020.4,000.0,029.4,022.8,13.6,0000.0,0006.06,0001.60,0000.94
2024-03-18 20:12:00,SystemResetWarning,0833.3,5.00,000.00,021.1,020.4,000.0,029.4,022.8,13.8,0000.0,0005.12,0001.54,0000.93
2024-03-18 20:13:00,SystemResetWarning,0833.0,5.01,000.00,021.1,020.5,000.0,029.4,022.8,12.5,0000.0,0004.98,0001.55,0000.92
2024-03-18 20:14:00,SystemResetWarning,0833.1,5.00,000.00,021.1,020.5,000.0,029.4,022.8,12.9,0000.0,0005.24,0001.54,0000.91
2024-03-18 20:15:00,SystemResetWarning,0833.1,4.99,000.00,021.1,020.5,000.0,029.5,022.9,12.3,0000.0,0004.87,0001.53,0000.90
2024-03-18 20:16:00,SystemResetWarning,0833.2,5.00,000.00,021.1,020.5,000.0,029.5,022.9,11.8,0000.0,0004.91,0001.52,0000.88
2024-03-18 20:17:00,SystemResetWarning,0832.8,5.02,000.00,021.1,020.5,000.0,029.5,022.9,11.4,0000.0,0005.02,0001.53,0000.88
2024-03-18 20:18:00,SystemResetWarning,0833.0,5.00,000.00,021.1,020.5,000.0,029.5,022.9,12.1,0000.0,0005.12,0001.54,0000.89
2024-03-18 20:19:00,SystemResetWarning,0832.8,4.98,000.00,021.1,020.5,000.0,029.5,022.9,12.8,0000.0,0006.17,0001.55,0000.90
2024-03-18 20:20:00,SystemResetWarning,0832.8,5.00,000.00,021.2,020.5,000.0,029.5,022.9,13.2,0000.0,0006.12,0001.53,0000.91
2024-03-18 20:21:00,SystemResetWarning,0832.8,5.01,000.00,021.2,020.5,000.0,029.5,022.9,12.9,0000.0,0006.25,0001.59,0000.92
2024-03-18 20:22:00,SystemResetWarning,0832.8,5.00,000.00,021.2,020.6,000.0,029.5,022.9,12.4,0000.0,0005.61,0001.61,0000.94
2024-03-18 20:23:00,SystemResetWarning,0832.8,5.00,000.00,021.2,020.6,000.0,029.5,022.9,12.9,0000.0,0005.68,0001.66,0000.96
2024-03-18 20:24:00,SystemResetWarning,0832.8,5.00,000.00,021.2,020.6,000.0,029.5,023.0,12.7,0000.0,0005.68,0001.68,0000.99
2024-03-18 20:25:00,SystemResetWarning,0832.7,5.00,000.00,021.2,020.6,000.0,029.5,023.0,12.8,0000.0,0005.39,0001.69,0001.01
2024-03-18 20:26:00,SystemResetWarning,0832.8,5.00,000.00,021.2,020.6,000.0,029.5,023.0,12.4,0000.0,0005.57,0001.68,0001.04
2024-03-18 20:27:00,SystemResetWarning,0832.8,5.00,000.00,021.2,020.6,000.0,029.5,023.0,13.4,0000.0,0005.88,0001.73,0001.07
2024-03-18 20:28:00,SystemResetWarning,0832.8,5.00,000.00,021.2,020.6,000.0,029.6,023.0,14.1,0000.0,0007.69,0001.78,0001.10
2024-03-18 20:29:00,SystemResetWarning,0832.8,5.00,000.00,021.2,020.7,000.0,029.6,023.0,13.1,0000.0,0008.00,0001.85,0001.13
2024-03-18 20:30:00,SystemResetWarning,0832.9,5.00,000.00,021.3,020.7,000.0,029.6,023.0,12.8,0000.0,0007.35,0001.93,0001.16
2024-03-18 20:31:00,SystemResetWarning,0832.7,5.00,000.00,021.3,020.7,000.0,029.6,023.0,13.5,0000.0,0007.38,0001.99,0001.18
2024-03-18 20:32:00,SystemResetWarning,0832.7,5.01,000.00,021.3,020.7,000.0,029.6,023.0,13.6,0000.0,0007.53,0002.02,0001.21
2024-03-18 20:33:00,SystemResetWarning,0832.7,5.01,000.00,021.3,020.7,000.0,029.6,023.0,12.7,0000.0,0007.80,0002.10,0001.22
2024-03-18 20:34:00,SystemResetWarning,0832.7,4.99,000.00,021.3,020.7,000.0,029.6,023.1,12.5,0000.0,0008.20,0002.11,0001.23
2024-03-18 20:35:00,SystemResetWarning,0832.7,4.99,000.00,021.3,020.7,000.0,029.6,023.1,12.2,0000.0,0008.50,0002.17,0001.24
2024-03-18 20:36:00,SystemResetWarning,0832.7,4.99,000.00,021.3,020.7,000.0,029.6,023.1,13.2,0000.0,0008.62,0002.19,0001.25
2024-03-18 20:37:00,SystemResetWarning,0832.6,5.00,000.00,021.3,020.7,000.0,029.6,023.1,12.8,0000.0,0008.69,0002.23,0001.26
2024-03-18 20:38:00,SystemResetWarning,0832.7,5.01,000.00,021.3,020.8,000.0,029.6,023.1,14.0,0000.0,0008.92,0002.25,0001.27
2024-03-18 20:39:00,SystemResetWarning,0832.7,5.01,000.00,021.3,020.8,000.0,029.7,023.1,14.0,0000.0,0007.86,0002.25,0001.27
2024-03-18 20:40:00,SystemResetWarning,0832.7,5.00,000.00,021.3,020.8,000.0,029.7,023.1,13.7,0000.0,0007.47,0002.19,0001.26
2024-03-18 20:41:00,SystemResetWarning,0832.7,5.00,000.00,021.4,020.8,000.0,029.7,023.1,13.6,0000.0,0007.67,0002.13,0001.26
2024-03-18 20:42:00,SystemResetWarning,0832.6,4.99,000.00,021.4,020.8,000.0,029.7,023.1,13.6,0000.0,0007.47,0002.15,0001.26
2024-03-18 20:43:00,SystemResetWarning,0832.6,5.00,000.00,021.4,020.8,000.0,029.7,023.1,13.4,0000.0,0007.37,0002.12,0001.25
2024-03-18 20:44:00,SystemResetWarning,0832.7,5.00,000.00,021.4,020.8,000.0,029.7,023.1,13.6,0000.0,0007.33,0002.07,0001.26
2024-03-18 20:45:00,SystemResetWarning,0832.7,4.99,000.00,021.4,020.8,000.0,029.7,023.1,12.9,0000.0,0007.12,0002.05,0001.27
2024-03-18 20:46:00,SystemResetWarning,0832.7,5.00,000.00,021.4,020.8,000.0,029.7,023.1,13.5,0000.0,0007.16,0002.03,0001.27
2024-03-18 20:47:00,SystemResetWarning,0832.6,5.00,000.00,021.4,020.8,000.0,029.7,023.2,14.1,0000.0,0007.19,0002.05,0001.29
2024-03-18 20:48:00,SystemResetWarning,0832.7,5.00,000.00,021.4,020.8,000.0,029.7,023.2,13.6,0000.0,0006.62,0002.00,0001.29
2024-03-18 20:49:00,SystemResetWarning,0832.7,5.01,000.00,021.4,020.8,000.0,029.7,023.2,12.6,0000.0,0006.37,0002.01,0001.30
2024-03-18 20:50:00,SystemResetWarning,0832.7,5.01,000.00,021.4,020.8,000.0,029.8,023.2,12.4,0000.0,0006.50,0002.02,0001.31
2024-03-18 20:51:00,SystemResetWarning,0832.6,5.00,000.00,021.4,020.8,000.0,029.8,023.2,12.8,0000.0,0006.50,0002.06,0001.32
2024-03-18 20:52:00,SystemResetWarning,0832.6,5.00,000.00,021.4,020.8,000.0,029.8,023.2,12.8,0000.0,0006.28,0002.08,0001.31
2024-03-18 20:53:00,SystemResetWarning,0832.7,5.00,000.00,021.4,020.8,000.0,029.8,023.2,12.7,0000.0,0006.12,0002.04,0001.32
2024-03-18 20:54:00,SystemResetWarning,0832.7,5.00,000.00,021.5,020.9,000.0,029.8,023.2,12.9,0000.0,0006.07,0002.02,0001.33
2024-03-18 20:55:00,SystemResetWarning,0832.6,5.00,000.00,021.5,020.9,000.0,029.8,023.2,13.6,0000.0,0005.65,0002.02,0001.32
2024-03-18 20:56:00,SystemResetWarning,0832.7,5.00,000.00,021.5,020.9,000.0,029.8,023.2,13.9,0000.0,0005.55,0002.03,0001.32
2024-03-18 20:57:00,SystemResetWarning,0832.7,5.00,000.00,021.5,020.9,000.0,029.8,023.2,13.3,0000.0,0005.66,0002.06,0001.32
2024-03-18 20:58:00,SystemResetWarning,0832.6,4.99,000.00,021.5,020.9,000.0,029.8,023.3,12.4,0000.0,0005.11,0002.04,0001.30
2024-03-18 20:59:00,SystemResetWarning,0832.6,5.00,000.00,021.5,020.9,000.0,029.8,023.3,12.6,0000.0,0005.64,0002.08,0001.31
